Showing default

MIDAS 6 (FTV 1169), 574

Orbit data source: Space-Track

MIDAS 6 (FTV 1169), 574 is a payload satellite owned by USAF SSD (US) in LEO that was launched on Thu, 09 May 1963 UTC via an ATLAS AGENA B launch vehicle from the Air Force Western Test Range (AFWTR). Payload-class satellites include a variety of spacecraft equipped with specific instruments for various scientific and technological missions. These include communications satellites like Starlink; space stations such as the ISS; scientific satellites like the Hubble; Earth observation satellites from companies like Planet Labs, Umbra, and HawkEye 360; GPS; miniature CubeSats for education and research; and military/defense satellites.

Loading next visibility...
Identifier
574, 1963-014A
Orbit
LEO
Country
Flag of USUS
Related business
Manufacturer
LMSC
Mission
Defense Early Warn
Bus & Motor
MIDAS, Unknown motor
Mass
~1,540 kg wet, ~840 kg dry
Launch date (UTC)
1963-05-09 (62 years ago)
Launch vehicle
ATLAS AGENA B
Launch site
Air Force Western Test Range (AFWTR)
Object type
Payload
Rocket body
Debris
Shape & HBR
Cyl + Cone, 1.0 m
Radar Cross Section
3.240 m², Large (>1 m²)

Expand to show TLE details & history
Last TLE update: 1 day ago

TLE from 1 day ago
0 MIDAS 6 (FTV 1169)
1 00574U 63014A   25260.24717209  .00000017  00000-0  66900-2 0  9998
2 00574  87.3368 221.5699 0031666  27.9660 332.2889  8.65276241194177
Epoch: 2025-09-17T05:55Z
TLE epoch observation values (Epoch: 2025-09-17T05:55:55.668Z)
Latitude
-0°
Longitude
136.16209°
Altitude
3,618.224 km
Speed
6.324 km/s
True Right ascension
14h 46m 16s
True Declination
0° 00' 00"
Sunlit
Object was in daylight at epoch
Visualization orbit readout
Latitude
Unknown
Longitude
Unknown
Altitude
Unknown
Speed
Unknown
Apparent Right ascension
Unknown
Apparent Declination
Unknown
Sunlit
N/A
Visualization observer readout
Local Sidereal Time
05:28:24
Azimuth
Unknown
Elevation
Unknown
Doppler factor
Unknown
Orbital elements
Apogee altitude
3,673.668 km
Perigee altitude
3,610.209 km
Semi-major axis
10,020.076 km
Eccentricity
0.00317
Inclination
87.3368°
RAAN
221.5699°
Arg. of periapsis
27.966°
True anomaly
332.11957°
Mean anomaly
332.2889°
Eccentric anomaly
332.20429°
Mean motion
2.1639 °/min
Orbital period
166.37 mins
BSTAR
0.00669
Loading maneuver chart data...
Computing Atmospheric mass density...

Documentation

Showing up to 5 results
|